FOREST GROVE OR US AGRIMET current weather conditions

sailwx.info

Wind from 207 at 4 knots gusting 10

Air temperature 11.7° C
Dewpoint 7.9° C

Last reported at 2017-Nov-24 22:30 UTC.
Time now 2017-Nov-25 00:02 UTC

Location: N 45°33' W 123°05'.
View on Google Maps.

See reports from other nearby stations

  
Tides and Currents Weather Stations Pressure Air Temp Water Temp Dewpoint Dewpoint Depression Visibility Wind Speed Wind Dir Waves Ship Positions
date/time (UTC)wind fromknots sea level pressurealtimeterstation pressurevisibilityair tempwater tempwave heightnotes
2017-Nov-24 22:30 207 4 gusting 10 11.7
2017-Nov-24 22:15 188 3 gusting 5 12.3
2017-Nov-24 22:00 194 4 gusting 8 11.7
2017-Nov-24 21:45 196 3 gusting 7 11.7
2017-Nov-24 21:30 192 5 gusting 10 12.4
2017-Nov-24 21:15 202 5 gusting 11 12.3
2017-Nov-24 21:00 195 4 gusting 10 12.1
2017-Nov-24 20:45 195 5 gusting 12 12.2
2017-Nov-24 20:30 207 4 gusting 11 11.6
2017-Nov-24 20:15 215 4 gusting 12 10.5
2017-Nov-24 20:00 214 4 gusting 10 11.3
2017-Nov-24 19:45 199 5 gusting 9 10.9
2017-Nov-24 19:30 193 4 gusting 8 10.7
2017-Nov-24 19:15 195 2 gusting 5 10.7
2017-Nov-24 19:00 203 1 gusting 5 9.7
2017-Nov-24 18:45 196 2 gusting 4 9.1
2017-Nov-24 18:30 147 2 gusting 3 8.7
2017-Nov-24 18:15 133 1 gusting 3 8.1
2017-Nov-24 18:00 292 0 gusting 1 7.8
2017-Nov-24 17:45 352 0 gusting 1 7.3
2017-Nov-24 17:30 280 0 gusting 1 7.3
2017-Nov-24 17:15 149 0 gusting 2 7.1
2017-Nov-24 17:00 177 0 gusting 1 6.9
2017-Nov-24 16:45 181 0 gusting 1 6.8
2017-Nov-24 16:30 167 0 gusting 1 6.6
2017-Nov-24 16:15 111 1 gusting 2 6.5
2017-Nov-24 16:00 069 0 gusting 1 6.3
2017-Nov-24 15:45 107 0 gusting 1 6.0
2017-Nov-24 15:30 105 0 gusting 1 5.9
2017-Nov-24 15:15 351 0 gusting 1 5.7
2017-Nov-24 15:00 354 0 gusting 1 5.4 5.4 Thunderstorm.
2017-Nov-24 14:45 335 0 gusting 0 5.4
2017-Nov-24 14:30 336 0 gusting 2 5.2
2017-Nov-24 14:15 282 0 gusting 1 5.4
2017-Nov-24 14:00 276 0 gusting 2 5.7
2017-Nov-24 13:30 351 0 gusting 1 4.7
2017-Nov-24 13:15 284 1 gusting 2 4.8
2017-Nov-24 13:00 148 2 gusting 3 5.4 5.0
2017-Nov-24 12:45 085 1 gusting 3 4.9
2017-Nov-24 12:30 110 1 gusting 2 5.3
2017-Nov-24 12:15 136 0 gusting 2 5.5
2017-Nov-24 12:00 051 0 gusting 1 5.4 5.3
2017-Nov-24 11:45 298 0 gusting 1 5.3
2017-Nov-24 11:30 270 0 gusting 1 5.2
2017-Nov-24 11:15 269 1 gusting 3 5.0
2017-Nov-24 11:00 175 0 gusting 1 5.4 4.7
2017-Nov-24 10:45 357 2 gusting 4 4.5
2017-Nov-24 10:30 291 1 gusting 4 4.4
2017-Nov-24 10:15 346 0 gusting 2 3.9
2017-Nov-24 10:00 006 0 gusting 2 5.4 3.4
2017-Nov-24 09:45 207 0 gusting 4 3.9
2017-Nov-24 09:30 328 0 gusting 1 4.2
2017-Nov-24 09:15 271 0 gusting 1 4.1
2017-Nov-24 09:00 276 0 gusting 1 5.4 4.5
2017-Nov-24 08:45 282 0 gusting 1 4.8
2017-Nov-24 08:30 310 1 gusting 2 4.9
2017-Nov-24 08:15 307 1 gusting 3 4.7
2017-Nov-24 08:00 321 0 gusting 3 5.4 5.1
2017-Nov-24 07:45 308 0 gusting 2 5.2
2017-Nov-24 07:30 257 1 gusting 3 7.0
2017-Nov-24 07:15 229 1 gusting 5 7.2
2017-Nov-24 07:00 328 0 gusting 1 3.8 6.5
2017-Nov-24 06:45 278 0 gusting 3 6.8
2017-Nov-24 06:30 301 1 gusting 3 7.3
2017-Nov-24 06:15 098 1 gusting 3 7.3
2017-Nov-24 06:00 210 1 gusting 6 8.1
2017-Nov-24 05:45 066 0 gusting 3 8.1
2017-Nov-24 05:30 170 1 gusting 4 8.2
2017-Nov-24 05:15 359 1 gusting 2 7.7
2017-Nov-24 05:00 005 1 gusting 2 8.2
2017-Nov-24 04:45 201 1 gusting 3 8.5
2017-Nov-24 04:30 204 1 gusting 6 9.1
2017-Nov-24 04:15 177 2 gusting 4 9.1
2017-Nov-24 04:00 245 0 gusting 2 9.0
2017-Nov-24 03:45 267 1 gusting 3 9.1
2017-Nov-24 03:30 253 1 gusting 2 9.4
2017-Nov-24 03:15 185 1 gusting 2 9.1
2017-Nov-24 03:00 160 1 gusting 2 8.6
2017-Nov-24 02:45 170 1 gusting 2 8.4
2017-Nov-24 02:30 206 1 gusting 3 9.6
2017-Nov-24 02:15 208 2 gusting 4 10.0
2017-Nov-24 02:00 219 2 gusting 4 9.9
2017-Nov-24 01:45 206 2 gusting 4 9.7
2017-Nov-24 01:30 147 0 gusting 1 9.9
2017-Nov-24 01:15 274 0 gusting 1 10.0
2017-Nov-24 01:00 252 1 gusting 4 11.2
2017-Nov-24 00:45 247 1 gusting 4 11.3
2017-Nov-24 00:30 227 2 gusting 6 11.9
2017-Nov-24 00:15 223 1 gusting 4 11.8
2017-Nov-24 00:00 288 2 gusting 5 12.3
2017-Nov-23 23:45 293 2 gusting 5 12.5
2017-Nov-23 23:30 281 2 gusting 7 12.8
2017-Nov-23 23:15 285 3 gusting 7 14.1
2017-Nov-23 23:00 287 3 gusting 8 13.5
2017-Nov-23 22:45 287 3 gusting 10 13.7
2017-Nov-23 22:30 269 3 gusting 7 14.2
2017-Nov-23 22:15 266 3 gusting 7 14.9
2017-Nov-23 22:00 275 2 gusting 6 15.2
2017-Nov-23 21:45 279 3 gusting 9 14.5
2017-Nov-23 21:30 288 2 gusting 7 15.3
2017-Nov-23 21:15 290 3 gusting 6 15.8
2017-Nov-23 21:00 255 2 gusting 5 15.5
2017-Nov-23 20:45 266 3 gusting 8 15.6
2017-Nov-23 20:30 258 3 gusting 8 16.1
2017-Nov-23 20:15 239 5 gusting 14 16.4
2017-Nov-23 20:00 243 4 gusting 8 17.1
2017-Nov-23 19:45 256 3 gusting 9 17.0
2017-Nov-23 19:30 260 4 gusting 11 16.3
2017-Nov-23 19:15 243 4 gusting 9 16.1
2017-Nov-23 19:00 221 2 gusting 7 16.4
2017-Nov-23 18:45 208 3 gusting 8 16.1
2017-Nov-23 18:30 204 4 gusting 9 15.3
2017-Nov-23 18:15 202 6 gusting 12 14.9
2017-Nov-23 18:00 206 5 gusting 11 14.9
2017-Nov-23 17:45 200 7 gusting 15 14.9
2017-Nov-23 17:30 196 7 gusting 15 14.8
2017-Nov-23 17:15 203 6 gusting 13 15.0
2017-Nov-23 17:00 206 5 gusting 10 15.1
2017-Nov-23 16:45 196 6 gusting 11 15.2
2017-Nov-23 16:30 198 6 gusting 12 15.1
2017-Nov-23 16:15 198 5 gusting 10 15.1
2017-Nov-23 16:00 196 5 gusting 11 15.0
2017-Nov-23 15:45 200 5 gusting 10 15.0
2017-Nov-23 15:30 207 3 gusting 8 14.8
2017-Nov-23 15:15 216 3 gusting 7 14.6
2017-Nov-23 15:00 200 4 gusting 8 14.4
2017-Nov-23 14:45 196 3 gusting 7 14.4
2017-Nov-23 14:30 212 2 gusting 7 14.4
2017-Nov-23 14:15 210 3 gusting 6 14.5
2017-Nov-23 14:00 201 2 gusting 5 14.3
2017-Nov-23 13:30 177 2 gusting 5 14.2
2017-Nov-23 13:15 177 2 gusting 6 14.2
2017-Nov-23 13:00 168 1 gusting 2 13.6
2017-Nov-23 12:45 172 2 gusting 4 13.8
2017-Nov-23 12:30 179 2 gusting 4 13.9
2017-Nov-23 12:15 189 2 gusting 4 14.3
2017-Nov-23 12:00 183 2 gusting 5 5.414.4
2017-Nov-23 11:45 192 2 gusting 5 14.8
2017-Nov-23 11:30 191 2 gusting 5 14.8
2017-Nov-23 11:15 201 2 gusting 4 15.0
2017-Nov-23 11:00 201 1 gusting 5 5.414.9
2017-Nov-23 10:45 225 0 gusting 1 14.8
2017-Nov-23 10:30 201 1 gusting 3 15.0
2017-Nov-23 10:15 179 2 gusting 3 15.0
2017-Nov-23 10:00 177 2 gusting 4 5.415.3
2017-Nov-23 09:45 188 3 gusting 5 15.4
2017-Nov-23 09:30 180 2 gusting 6 15.3
2017-Nov-23 09:15 187 2 gusting 5 15.2
2017-Nov-23 09:00 204 2 gusting 8 5.415.4
2017-Nov-23 08:45 200 3 gusting 7 15.4
2017-Nov-23 08:30 204 1 gusting 5 15.4
2017-Nov-23 08:15 179 2 gusting 6 15.2
2017-Nov-23 08:00 172 4 gusting 8 5.415.2
2017-Nov-23 07:45 178 4 gusting 9 15.3
2017-Nov-23 07:30 190 3 gusting 9 15.4
2017-Nov-23 07:15 194 2 gusting 7 15.4
2017-Nov-23 07:00 232 2 gusting 6 5.415.5
2017-Nov-23 06:45 181 4 gusting 9 15.5
2017-Nov-23 06:30 181 3 gusting 7 15.5
2017-Nov-23 06:15 189 5 gusting 11 15.6
2017-Nov-23 06:00 186 4 gusting 8 15.8
2017-Nov-23 05:45 180 3 gusting 7 15.6
2017-Nov-23 05:30 181 2 gusting 5 15.6
2017-Nov-23 05:15 198 2 gusting 5 15.6
2017-Nov-23 05:00 186 3 gusting 7 15.5
2017-Nov-23 04:45 201 3 gusting 8 15.6
2017-Nov-23 04:30 205 3 gusting 6 15.7
2017-Nov-23 04:15 199 1 gusting 4 15.1
2017-Nov-23 04:00 121 0 gusting 1 14.2
2017-Nov-23 03:45 072 0 gusting 1 14.5
2017-Nov-23 03:30 038 0 gusting 2 14.7
2017-Nov-23 03:15 358 0 gusting 2 14.4
2017-Nov-23 03:00 089 2 gusting 3 14.3
2017-Nov-23 02:45 029 1 gusting 2 14.4
2017-Nov-23 02:30 063 2 gusting 3 14.3
2017-Nov-23 02:15 075 1 gusting 2 14.3
2017-Nov-23 02:00 090 1 gusting 2 14.2
2017-Nov-23 01:45 072 0 gusting 2 14.4
2017-Nov-23 01:30 086 0 gusting 2 14.9
2017-Nov-23 01:15 130 2 gusting 3 15.3
2017-Nov-23 01:00 081 1 gusting 3 15.2
2017-Nov-23 00:45 057 1 gusting 1 14.6
2017-Nov-23 00:30 114 0 gusting 1 15.4
2017-Nov-23 00:15 083 0 gusting 1 15.6
2017-Nov-23 00:00 087 0 gusting 1 15.8